Location: Bie?czyce
(50.0881°N, 20.0279°E)
Time: 13:24:32
(UTC+00:00)

Daily predictions for brighter satellites

Satellite Brightness Start Highest point End
(mag) Time Altitude Azimuth Time Altitude Azimuth Time Altitude Azimuth
Cosmos 2228 3.4 19:29:41 10° N 19:33:48 46° ENE 19:37:53 10° SSE
IRAS Rocket 4.3 19:31:13 10° NNE 19:36:49 66° ESE 19:42:19 10° S
Lacrosse 5 3.5 19:33:02 10° WNW 19:37:08 25° SW 19:41:14 10° S
Cosmos 968 Rocket 4.4 19:36:29 10° NNW 19:41:20 37° NE 19:46:10 10° SE
Meteor 1-24 Rocket 4.5 19:41:14 10° SSW 19:46:29 55° WNW 19:51:56 10° N
Cosmos 1271 Rocket 4.1 19:44:13 10° NNW 19:47:56 39° W 19:51:36 10° SSW
Cosmos 2360 4.3 19:42:12 10° NNW 19:47:59 80° ENE 19:53:43 10° SSE
Cosmos 1867 4.2 19:44:44 10° NW 19:50:06 51° NE 19:55:24 10° ESE
USA 267 4.5 19:46:24 10° E 19:50:37 18° ESE 19:54:49 10° SSE
Cosmos 2082 Rocket 3.3 19:46:43 10° SSE 19:51:19 26° ESE 19:55:54 10° NE
H-2A R/B 3.5 19:49:33 10° N 19:53:46 43° WNW 19:58:01 10° SW
USA 276 1.9 19:51:26 10° W 19:54:29 90° NE 19:57:31 10° E
Cosmos 1455 3.8 19:53:47 10° NNW 19:57:14 32° W 20:00:40 10° SSW
USA 245 3.5 19:53:44 10° S 19:57:46 62° WSW 20:01:01 10° NNW
Cosmos 1536 Rocket 3.7 19:54:09 10° SSW 19:58:29 81° WNW 20:02:53 10° N
Meteor 1-21 Rocket 4.4 19:56:06 10° S 20:01:35 60° E 20:07:13 10° NNE
Cosmos 1606 Rocket 3.7 19:57:56 10° N 20:02:14 60° ENE 20:06:16 11° SSE
CARTOSAT-1 4.4 19:58:07 10° S 20:02:17 48° W 20:06:29 10° NNW
ARIANE 5 R/B 3.1 19:58:11 11° SE 20:02:19 48° ENE 20:06:35 10° N
SPOT 3 Rocket 4.2 20:06:41 10° S 20:11:45 52° W 20:16:52 10° NNW
Cosmos 2074 Rocket 4.3 20:06:11 10° NNW 20:12:24 67° W 20:18:34 10° S
Ariane Rocket 4.5 20:08:55 10° SSW 20:13:30 33° W 20:18:08 10° NNW
Cosmos 1726 Rocket 3.5 20:20:39 10° N 20:25:00 79° E 20:28:35 15° SSE
Nadezhda 1 Rocket 3.9 20:20:01 10° S 20:26:07 87° E 20:32:13 10° N
USA 234 3.8 20:20:50 10° E 20:27:14 59° NNE 20:33:40 10° WNW
Cosmos 1892 3.6 20:27:17 17° SE 20:29:35 32° E 20:32:59 10° NNE
Meteor 2-1 Rocket 4.3 20:24:36 10° NNW 20:30:07 74° W 20:35:17 12° S
SL-16 R/B 3.4 20:29:02 10° NNW 20:34:12 34° NE 20:39:21 10° ESE
Cosmos 1980 Rocket 2.2 20:28:49 10° NNW 20:34:34 88° WSW 20:39:07 16° SSE
Cosmos 1697 Rocket 3.3 20:29:17 10° NW 20:34:41 48° WSW 20:39:32 13° S
Cosmos 2344 4.3 20:28:50 10° NW 20:37:37 76° SW 20:48:13 15° SSE
Cosmos 2369 3.8 20:32:15 10° NNW 20:38:00 76° WSW 20:42:35 16° SSE
Cosmos 1331 Rocket 4.3 20:34:16 10° SSW 20:39:33 71° WNW 20:44:52 10° NNE
COSMOS 2406 3.2 20:39:10 10° SSW 20:44:56 82° ESE 20:50:43 10° NNE
CZ-2C R/B 3.9 20:42:17 10° N 20:46:51 70° WNW 20:51:18 10° SSW
X-37B 2.3 20:45:21 10° WSW 20:47:01 15° SSW 20:47:01 15° SSW
ATLAS 5 CENTAUR R/B 2.3 20:48:01 21° SSE 20:49:16 26° ESE 20:52:41 10° ENE
In-Cosmos 22 Rocket 4.5 20:48:38 17° SSE 20:52:39 50° E 20:57:52 10° NNE
SPOT 5 4.2 20:50:11 10° SSW 20:53:59 29° W 20:57:48 10° NW
Meteor 1-27 4.4 20:50:48 10° N 20:56:20 64° ENE 21:00:16 20° SSE
Cosmos 1869 3.7 20:53:43 10° N 20:57:31 48° ENE 20:59:42 22° SE
Cosmos 2084 Rocket 4.4 20:54:21 10° WNW 20:57:50 32° WSW 21:00:03 19° S
Terra 2.9 20:56:28 12° SSW 21:00:36 39° W 21:05:05 10° NNW
Cosmos 1833 Rocket 3.6 20:55:48 10° SW 21:01:15 51° NW 21:06:46 10° NNE
ASTEX 1 3.4 20:57:36 10° N 21:02:39 79° E 21:06:20 18° S
SL-8 Rocket 4.0 20:57:28 10° N 21:03:45 88° E 21:08:23 19° S
ADEOS Rocket 4.3 20:58:46 13° SE 21:04:56 45° ENE 21:12:11 10° N
ALOS 2 4.0 21:02:25 14° ESE 21:05:20 28° ENE 21:09:06 10° N
ERS-1 Rocket 4.4 21:02:53 10° SSW 21:07:17 30° W 21:11:42 10° NNW
FALCON 9 DEB 2.9 21:04:51 10° WNW 21:08:07 71° SSW 21:09:45 27° SE
Cosmos 1892 Rocket 3.9 21:04:14 12° SSW 21:08:11 64° WNW 21:12:33 10° N
Cosmos 2322 Rocket 3.1 21:04:28 10° NNW 21:09:53 43° NE 21:14:37 13° ESE
Cosmos 1302 Rocket 4.1 21:04:45 10° SSW 21:09:57 77° WNW 21:15:11 10° NNE
Cosmos 2058 Rocket 3.4 21:07:58 10° NNW 21:12:20 60° W 21:15:19 20° S
Cosmos 1503 Rocket 4.4 21:09:27 10° NNW 21:14:43 58° ENE 21:18:16 20° SE
Cosmos 1825 2.2 21:15:03 27° S 21:16:54 63° E 21:20:37 10° NNE
Cosmos 1408 3.0 21:16:14 18° SSW 21:18:38 54° WNW 21:22:02 10° N
Cosmos 1626 Rocket 3.6 21:17:38 25° SSE 21:20:01 61° E 21:24:21 10° NNE
Cosmos 2278 3.9 21:15:02 10° NNW 21:20:43 68° WSW 21:24:23 23° SSE
Meteor 1-11 4.4 21:15:39 12° SSW 21:20:49 71° WNW 21:26:25 10° N
Cosmos 2366 rocket 4.1 21:16:27 10° N 21:22:48 82° W 21:27:20 21° S
Cosmos 968 Rocket 4.4 21:18:20 10° NW 21:23:09 38° WSW 21:26:36 17° SSW
Cosmos 2333 Rocket 3.9 21:19:41 10° NNW 21:24:37 28° NE 21:29:32 10° ESE
Cosmos 2218 Rocket 4.1 21:19:51 10° NNW 21:26:18 78° W 21:30:50 21° S
USA 276 1.9 21:27:11 10° W 21:30:12 61° SSW 21:31:01 40° SE
SJ 16-02 1.9 21:28:28 10° NNW 21:32:48 50° ENE 21:35:23 22° SE
Cosmos 1867 4.4 21:28:35 10° NW 21:33:35 37° WSW 21:36:30 21° S
USA 267 3.3 21:28:09 10° ENE 21:34:37 58° SE 21:41:02 10° SW
Cosmos 2082 Rocket 2.6 21:29:19 10° SW 21:34:58 63° WNW 21:40:39 10° NNE
BREEZE-M DEB (TANK) 4.0 21:22:40 10° WSW 21:35:14 60° SSE 21:38:59 10° E
GP-B 4.0 21:36:14 10° N 21:40:28 44° W 21:43:35 17° SSW
H-2A R/B 4.1 21:38:54 10° NNE 21:42:55 42° E 21:44:32 29° SSE
Cosmos 2360 Rocket 2.8 21:40:21 10° NNW 21:45:54 51° NE 21:50:16 16° SE
Cosmos 2221 4.3 21:45:21 10° NNE 21:48:52 23° ENE 21:51:30 14° ESE
Spot 4 3.9 21:48:33 28° S 21:51:07 75° WSW 21:55:56 10° NNW
Cosmos 2058 3.9 21:50:01 26° SE 21:51:33 35° E 21:55:23 10° NNE
Cosmos 1606 2.9 21:48:01 10° N 21:51:51 59° ENE 21:53:24 32° SE
Cosmos 2237 4.2 21:55:40 10° NNW 22:01:26 89° ENE 22:04:54 25° SSE
Okean 1-7 Rocket 4.4 21:58:40 18° SW 22:01:44 46° WNW 22:06:06 10° N
USA 234 3.2 22:04:42 16° SE 22:10:12 73° SW 22:16:47 10° WNW
Cosmos 1758 Rocket 3.5 22:08:36 30° SSW 22:10:43 81° W 22:15:09 10° N
COSMOS 2428 4.3 22:06:26 10° NNW 22:11:28 31° NE 22:16:30 10° ESE
Cosmos 1633 2.9 22:12:09 31° SW 22:13:32 53° WNW 22:16:57 10° N
Cosmos 1980 Rocket 4.2 22:14:21 10° WNW 22:17:43 16° W 22:20:52 11° SW
Cosmos 1821 Rocket 4.2 22:11:33 10° NNW 22:17:44 65° W 22:21:23 25° SSW
SL-16 R/B 2.5 22:13:03 10° NW 22:18:34 53° WSW 22:21:23 27° S
Cosmos 1812 Rocket 4.4 22:15:52 10° NNW 22:20:06 42° W 22:22:08 26° SSW
SL-4 R/B 2.4 22:23:23 33° SE 22:23:23 33° SE 22:26:17 10° E
Cosmos 2219 Rocket 3.1 22:17:33 10° NNW 22:23:00 45° NE 22:28:08 11° SE
Cosmos-2242 3.8 22:25:27 10° NNW 22:29:27 41° W 22:31:12 27° SW
ATLAS 5 CENTAUR R/B 2.4 22:29:48 10° WSW 22:33:29 45° NW 22:37:44 10° NE
Cosmos 1605 Rocket 4.4 22:27:52 10° N 22:34:14 61° ENE 22:38:25 22° SSE
ERS-2 2.0 22:33:02 10° NNE 22:36:38 73° ESE 22:37:40 43° S
Meteor 2-11 Rocket 4.4 22:33:46 10° N 22:39:56 86° E 22:43:30 27° SSE
Nadezhda 3 Rocket 4.2 22:36:22 23° SSW 22:40:20 66° WNW 22:46:29 10° N
ALOS 2 3.5 22:39:48 26° SW 22:41:33 37° W 22:45:40 10° NNW
ADEOS Rocket 4.0 22:45:43 23° SSW 22:50:16 51° W 22:57:48 10° NNW
BREEZE-M DEB (TANK) 4.4 22:46:36 10° W 22:50:40 64° SSW 23:09:01 10° ESE
Cosmos 972 Rocket 4.1 22:46:34 10° NNW 22:51:42 72° WSW 22:54:40 28° S
Cosmos 2322 Rocket 2.9 22:48:40 10° NW 22:53:55 40° WSW 22:56:24 26° SSW
USA 290 3.8 22:51:19 10° N 22:54:16 31° ENE 22:56:05 18° ESE
Cosmos 1933 3.9 22:50:41 10° N 22:54:36 50° ENE 22:56:26 27° SE
OPS 8737 4.5 22:56:42 31° SW 22:58:29 89° SSE 23:01:45 10° NE
Cosmos 1953 Rocket 3.7 22:58:43 31° SSW 23:00:44 67° W 23:05:09 10° N
PSLV R/B 3.7 22:55:57 10° NNE 23:00:45 89° E 23:03:01 31° SSW
ISS -2.2 23:01:42 22° ESE 23:01:42 22° ESE 23:03:38 10° E
SL-27 R/B 2.8 23:00:48 38° SE 23:01:20 42° ESE 23:04:27 10° NE
Cosmos 2333 Rocket 2.2 23:03:41 10° NNW 23:09:27 72° WSW 23:12:52 25° SSE
SJ 16-02 3.0 23:07:42 10° NW 23:11:01 21° W 23:12:19 19° WSW
CENTAUR R/B 3.5 23:09:34 22° SSE 23:12:18 31° ESE 23:18:11 10° NE
Gbstr 26 Del rocket 3.2 23:11:09 24° SW 23:13:50 65° SSE 23:19:14 10° ENE
COSMOS 2487 2.3 23:13:59 49° SE 23:14:26 55° ESE 23:17:27 10° NNE
Cosmos 1340 Rocket 3.5 23:13:04 27° SW 23:14:47 44° WNW 23:18:37 10° N
Cosmos 1898 Rocket 3.8 23:11:21 10° NNW 23:16:31 66° ENE 23:20:27 17° SE
Cosmos 2151 3.4 23:14:58 29° SSE 23:16:52 52° E 23:21:04 10° NNE
USA 267 3.6 23:11:15 10° ENE 23:17:44 66° NNW 23:24:12 10° WSW
Meteor 2-3 Rocket 3.7 23:20:57 27° S 23:24:05 79° E 23:29:42 10° NNE
Cosmos 1937 Rocket 4.0 23:19:41 10° NNW 23:24:54 58° ENE 23:29:30 13° SE
Cosmos 1812 2.9 23:21:10 10° N 23:24:59 66° ENE 23:26:44 30° SSE
Cosmos 2221 3.2 23:22:28 10° NNW 23:26:34 42° W 23:28:17 28° SW
Cosmos 1842 Rocket 3.9 23:24:58 10° NNW 23:29:20 53° W 23:31:14 30° SSW
Cosmos 2360 Rocket 3.1 23:24:42 10° NW 23:29:42 32° WSW 23:32:00 24° SW
Cosmos 2227 Rocket 4.4 23:31:01 10° SE 23:33:41 14° E 23:36:21 10° ENE
Resurs 1-4 Rocket 3.5 23:29:44 10° NNE 23:34:23 29° E 23:38:01 15° SSE
Cosmos 1782 2.7 23:31:36 10° NNW 23:35:35 73° W 23:37:13 34° S
Cosmos 1862 4.4 23:34:11 22° SE 23:36:07 35° E 23:39:44 10° NNE
CZ-2D R/B 3.3 23:38:21 10° NNE 23:43:03 33° E 23:46:40 15° SSE
COSMOS 2455 3.5 23:38:29 10° NNW 23:44:26 57° NE 23:50:21 10° SE
Cosmos 44 3.4 23:41:21 20° SW 23:44:27 62° NW 23:48:52 10° NE
Cosmos 1459 Rocket 4.0 23:47:46 10° N 23:53:53 82° E 23:58:33 18° SSE
USA 234 4.3 23:52:01 22° SSW 23:53:57 25° SW 23:59:11 10° WNW
